Regional Weather Roundup
Issued by NWS Jackson, KY

Home | Current Version | Previous Version | Graphics & Text | Print | Product List | Glossary Off
Versions: 1 2 3 4 5 6 7 8 9 10 11 12 13 14 15 16 17 18 19 20 21 22 23 24 25 26 27

000
ASUS43 KJKL 172010
RWRJKL

EAST KENTUCKY HOURLY WEATHER ROUNDUP
NATIONAL WEATHER SERVICE JACKSON KY
300 PM EST WED JAN 17 2018

NOTE: "FAIR" INDICATES FEW OR NO CLOUDS BELOW 12,000 FEET WITH
NO SIGNIFICANT WEATHER AND/OR OBSTRUCTIONS TO VISIBILITY.

* THESE REPORTS ARE NOT UNDER NWS QUALITY CONTROL AND MAY NOT
  REPORT WEATHER SUCH AS PRECIPITATION AND FOG.

KYZ079-080-083-085-087-088-110-112-115-119-120-172100
...EASTERN KENTUCKY...

CITY           SKY/WX    TMP DP  RH WIND       PRES   REMARKS
JACKSON        CLOUDY    12   4  70 W6        30.47F WCI   3
LONDON         CLOUDY    13   5  70 CALM      30.50F
SOMERSET*      PTSUNNY   18   7  62 N6        30.56S WCI   9
MONTICELLO*    CLOUDY    17   8  67 W8        30.56F WCI   7
WILLIAMSBURG*  CLOUDY    12   5  73 CALM      30.51F
MIDDLESBORO*   CLOUDY    14   6  68 N9        30.50F WCI   2
HARLAN APT*      N/A     18   5  57 W3        30.43F
PIKE CO APT*   PTSUNNY   11   3  70 W6        30.44F WCI   2
BIG SANDY APT* MOCLDY    13   4  66 W6        30.48F WCI   4
MOREHEAD APT*  CLOUDY    16   5  62 W6G12     30.53S WCI   7
ASHLAND*       CLOUDY    21   8  57 CALM      30.55F
$$

KYZ035-036-041-042-044-050-067-078-099-172100
...CENTRAL KENTUCKY...

CITY           SKY/WX    TMP DP  RH WIND       PRES   REMARKS
MT STERLING*   PTSUNNY   18   9  68 NW6       30.54S WCI   9
FLEMING/MASON* PTSUNNY   15   7  71 W7        30.53F WCI   5
DANVILLE*        N/A     14   9  79 NW9       30.55S WCI   2
LEXINGTON        N/A     16   7  67 NW8       30.54S WCI   5
FRANKFORT      CLOUDY    16   6  65 NW6       30.55F WCI   7
LOUISVILLE     CLOUDY    18  10  71 VRB5      30.58F WCI  11
LEBANON*       MOCLDY    14   7  73 W5        30.57S WCI   6
GLASGOW*       FLURRIES  19   9  66 NW7       30.60S WCI   9
BOWLING GREEN  CLOUDY    18   9  68 W6        30.63S WCI  10
$$

KYZ091>093-OHZ055-061-077-WVZ005-015-034-035-042-172100
...SOUTHERN OHIO/WEST VIRGINIA...

CITY           SKY/WX    TMP DP  RH WIND       PRES   REMARKS
COVINGTON        N/A     17  10  74 SW7       30.50F WCI   8
COLUMBUS         N/A     13   5  70 SW9       30.49F WCI   1
DAYTON           N/A     16  10  77 SW7       30.47F WCI   6
WILMINGTON       N/A     16   9  74 SW8       30.47F WCI   5
HUNTINGTON     CLOUDY    13   4  67 VRB3      30.52S
CHARLESTON     FLURRIES  13   4  67 VRB5      30.48F WCI   5
BECKLEY        CLOUDY    10   3  73 N12       30.28F WCI  -5
BLUEFIELD      PTSUNNY   12   2  64 VRB7      30.23S WCI   1
LOGAN CO APT*  CLOUDY    10   3  72 CALM      30.40F
$$

VAZ002-007-008-TNZ017-027-036-066-071-172100
...SOUTHWEST VIRGINIA/EAST TENNESSEE...

CITY           SKY/WX    TMP DP  RH WIND       PRES   REMARKS
WISE*            N/A     14   5  67 NW6       30.30S WCI   5
JONESVILLE*      N/A     19   7  58 NW7       30.45S WCI  10
ABINGDON*        N/A     19   6  58 N13       30.32S WCI   5
BRISTOL          N/A     21   6  52 N9        30.38S WCI  11
MORRISTOWN*    CLEAR     18   5  57 VRB7G13   30.42F WCI   8
SEVIERVILLE*   PTCLDY    19   7  58 SW6       30.47F WCI  11
KNOXVILLE        N/A     19   7  59 NW8       30.47F WCI   9
LAFOLLETTE*    MOCLDY    18   7  62 VRB6G16   30.52F WCI   9
OAK RIDGE        N/A     22   8  55 VRB5      30.49F WCI  16
CROSSVILLE       N/A     13   4  67 N10G21    30.44S WCI   0
NASHVILLE        N/A     21   9  59 NW6       30.62F WCI  13
$$

...KEY TO REMARKS...
VSB - VISIBILITY IN MILES
WCI - WIND CHILL INDEX
HX  - HEAT INDEX

$$




USA.gov is the U.S. government's official web portal to all federal, state and local government web resources and services.